Cozumel, Mexico

12:56 AM EST on July 27, 2017 (GMT -0500)
Cozumel

Weather History for MMCZ - January, 2012

Change the Weather History Date:

Tuesday, January 10, 2012

  Actual Average Record
Temperature  
Mean Temperature 69 °F -  
Max Temperature 78 °F 80 °F 86 °F (2000)
Min Temperature 60 °F 69 °F 60 °F (2003)
Cooling Degree Days 4    
Growing Degree Days 19 (Base 50)    
Moisture  
Dew Point 64 °F    
Average Humidity 84    
Maximum Humidity 94    
Minimum Humidity 69    
Precipitation  
Precipitation 0.00 in - - ()
Sea Level Pressure  
Sea Level Pressure 29.96 in    
Wind  
Wind Speed 2 mph ()    
Max Wind Speed 14 mph    
Max Gust Speed -    
Visibility 7.4 miles    
Events      
Averages and records for this station are not official NWS values.
T = Trace of Precipitation, MM = Missing Value Source: Averaged Metar Reports

Daily Weather History Graph

Daily Weather History Graph

Search for Another Location

Airport or City:

Trip Planner

Search our weather history database for the weather conditions in past years. The results will help you decide how hot, cold, wet, or windy it might be!

Date:

Astronomy

Jan. 10, 2012 Rise Set
Actual Time 6:25 AM CST 5:24 PM CST
Civil Twilight 6:02 AM CST 5:48 PM CST
Nautical Twilight 5:34 AM CST 6:15 PM CST
Astronomical Twilight 5:07 AM CST 6:42 PM CST
Moon 6:58 PM CST (1/10) 7:17 AM CST (1/10)
Length of Visible Light 11h 46m
Length of Day
10h 58m
Full, 98% of the Moon is Illuminated
Jan 10
Full
Jan 16
Last Quarter
Jan 23
New
Jan 30
First Quarter
Feb 7
Full

Hourly Weather History & Observations

Time (CST) Temp. Dew Point Humidity Pressure Visibility Wind Dir Wind Speed Gust Speed Precip Events Conditions
12:42 AM 64.4 °F 62.6 °F 94% 29.97 in 7.0 mi Calm Calm - N/A   Clear
1:46 AM 64.4 °F 60.8 °F 88% 29.96 in 7.0 mi Calm Calm - N/A   Clear
2:41 AM 64.4 °F 60.8 °F 88% 29.98 in 7.0 mi Calm Calm - N/A   Partly Cloudy
3:41 AM 62.6 °F 60.8 °F 94% 29.95 in 7.0 mi Calm Calm - N/A   Partly Cloudy
4:44 AM 62.6 °F 60.8 °F 94% 29.96 in 7.0 mi Calm Calm - N/A   Partly Cloudy
5:48 AM 62.6 °F 60.8 °F 94% 29.96 in 7.0 mi Calm Calm - N/A   Partly Cloudy
6:40 AM 60.8 °F 59.0 °F 94% 29.99 in 7.0 mi Calm Calm - N/A   Partly Cloudy
7:40 AM 66.2 °F 64.4 °F 94% 30.02 in 8.0 mi Calm Calm - N/A   Scattered Clouds
8:41 AM 73.4 °F 68.0 °F 83% 30.06 in 8.0 mi East 6.9 mph - N/A   Scattered Clouds
9:42 AM 75.2 °F 66.2 °F 73% 30.04 in 8.0 mi SE 9.2 mph - N/A   Mostly Cloudy
10:43 AM 78.8 °F 68.0 °F 69% 30.02 in 8.0 mi SSE 8.1 mph - N/A   Mostly Cloudy
11:44 AM 78.8 °F 68.0 °F 69% 29.97 in 8.0 mi ESE 13.8 mph - N/A   Mostly Cloudy
12:42 PM 77.0 °F 66.2 °F 69% 29.96 in 8.0 mi SE 5.8 mph - N/A   Mostly Cloudy
1:44 PM 77.0 °F 66.2 °F 69% 29.93 in 8.0 mi SE 8.1 mph - N/A   Mostly Cloudy
2:41 PM 75.2 °F 66.2 °F 73% 29.94 in 8.0 mi SE 8.1 mph - N/A   Mostly Cloudy
3:40 PM 75.2 °F 66.2 °F 73% 29.91 in 8.0 mi South 3.5 mph - N/A   Mostly Cloudy
4:40 PM 71.6 °F 68.0 °F 88% 29.92 in 7.0 mi Calm Calm - N/A   Mostly Cloudy
5:40 PM 71.6 °F 66.2 °F 83% 29.89 in 7.0 mi Calm Calm - N/A   Mostly Cloudy
6:40 PM 69.8 °F 66.2 °F 88% 29.93 in 7.0 mi Calm Calm - N/A   Scattered Clouds
7:40 PM 68.0 °F 64.4 °F 88% 29.94 in 7.0 mi Calm Calm - N/A   Partly Cloudy
8:40 PM 69.8 °F 66.2 °F 88% 29.97 in 7.0 mi Calm Calm - N/A   Partly Cloudy
9:45 PM 68.0 °F 64.4 °F 88% 29.94 in 7.0 mi Calm Calm - N/A   Partly Cloudy
10:54 PM 64.4 °F 62.6 °F 94% 29.93 in 7.0 mi Calm Calm - N/A   Clear
11:50 PM 66.2 °F 62.6 °F 88% 29.89 in 7.0 mi Calm Calm - N/A   Clear